+ View the NASA Portal
+ Center for Near-Earth Object Studies
IMPORTANT:
The SSD Announcement email list is now available. Major changes are coming in the near future, including possible hostname and/or URL changes. To be notified of such changes, subscribe to this email list.
Please visit
this page
for more details.
Don't show this message again
JPL Small-Body Database Browser
Search:
[
help
]
233288 (2006 AV93)
Classification:
Main-belt Asteroid
SPK-ID:
2233288
[
Ephemeris
|
Orbit Diagram
|
Orbital Elements
|
Mission Design
|
Physical Parameters
|
Discovery Circumstances
]
[ show orbit diagram ]
Orbital Elements at Epoch 2458600.5 (2019-Apr-27.0) TDB
Reference:
JPL 13
(heliocentric ecliptic J2000)
Element
Value
Uncertainty (1-sigma)
Units
e
.1161724627628797
2.9903e-07
a
2.564821161179088
4.35e-08
au
q
2.266859570338564
7.4072e-07
au
i
14.54529073318058
1.0144e-05
deg
node
335.398701854596
2.75e-05
deg
peri
345.3731302012474
0.0001184
deg
M
281.885243174891
0.00015054
deg
t
p
2458926.047709083976
(2020-Mar-17.54770908)
0.00063292
TDB
period
1500.320554445609
4.11
3.8169e-05
1.045e-07
d
yr
n
.2399487222469104
6.1044e-09
deg/d
Q
2.862782752019611
4.8554e-08
au
Orbit Determination Parameters
# obs. used (total)
254
data-arc span
6787 days (18.58 yr)
first obs. used
1999-09-11
last obs. used
2018-04-11
planetary ephem.
DE431
SB-pert. ephem.
SB431-N16
condition code
0
norm. resid. RMS
.55623
source
ORB
producer
Otto Matic
solution date
2019-Jul-14 06:24:29
Additional Information
Earth MOID
= 1.25668 au
Jupiter MOID
= 2.48304 au
T_jup
= 3.379
[ show covariance matrix ]
[
Ephemeris
|
Orbit Diagram
|
Orbital Elements
|
Mission Design
|
Physical Parameters
|
Discovery Circumstances
]
Physical Parameter Table
Parameter
Symbol
Value
Units
Sigma
Reference
Notes
absolute magnitude
H
15.7
n/a
MPO396712
233288 (2006 AV93)
Discovered 2006-Jan-07 by Mt. Lemmon Survey at Mount Lemmon
Reference:
20100228/Numbers.arc
Last Updated:
2010-03-03
[
Ephemeris
|
Orbit Diagram
|
Orbital Elements
|
Mission Design
|
Physical Parameters
|
Discovery Circumstances
]
2019-Dec-16 05:05 UT
(server date/time)
Site Manager:
Ryan S. Park
Webmaster
:
Alan B. Chamberlin